Time,TemperatureF,DewpointF,PressureIn,WindDirection,WindDirectionDegrees,WindSpeedMPH,WindSpeedGustMPH,Humidity,HourlyPrecipIn,Conditions,Clouds,dailyrainin,SoftwareType,DateUTC
2013-07-18 08:32:00,85.0,76.0,30.14,North,-999,-999.0,-999.0,74,-99.99,,,-99.99,,2013-07-18 13:32:00,
2013-07-18 08:43:00,86.0,76.0,30.14,NE,42,0.0,-999.0,73,-99.99,,,-99.99,,2013-07-18 13:43:00,
2013-07-18 08:53:00,87.0,76.0,30.14,NNE,33,1.0,-999.0,71,-99.99,,,-99.99,,2013-07-18 13:53:00,
2013-07-18 09:02:00,87.0,76.0,30.14,NE,42,2.0,-999.0,69,-99.99,,,-99.99,,2013-07-18 14:02:00,
2013-07-18 09:11:00,87.0,76.0,30.14,NNE,30,1.0,-999.0,70,-99.99,,,-99.99,,2013-07-18 14:11:00,
2013-07-18 09:22:00,87.0,76.0,30.15,ENE,63,0.0,-999.0,70,-99.99,,,-99.99,,2013-07-18 14:22:00,
2013-07-18 09:33:00,87.0,76.0,30.14,ENE,63,1.0,-999.0,69,-99.99,,,-99.99,,2013-07-18 14:33:00,
2013-07-18 09:43:00,88.0,76.0,30.14,NNE,29,1.0,-999.0,68,-99.99,,,-99.99,,2013-07-18 14:43:00,
2013-07-18 09:52:00,89.0,76.0,30.14,ENE,78,3.0,-999.0,65,-99.99,,,-99.99,,2013-07-18 14:52:00,
2013-07-18 10:01:00,89.0,76.0,30.14,NE,56,2.0,-999.0,65,-99.99,,,-99.99,,2013-07-18 15:01:00,
2013-07-18 10:11:00,88.0,75.0,30.15,ENE,75,2.0,-999.0,65,-99.99,,,-99.99,,2013-07-18 15:11:00,
2013-07-18 10:22:00,88.0,75.0,30.15,ENE,68,0.0,-999.0,65,-99.99,,,-99.99,,2013-07-18 15:22:00,
2013-07-18 10:32:00,88.0,75.0,30.14,ENE,68,1.0,-999.0,65,-99.99,,,-99.99,,2013-07-18 15:32:00,
2013-07-18 10:43:00,88.0,75.0,30.14,ENE,64,0.0,-999.0,66,-99.99,,,-99.99,,2013-07-18 15:43:00,
2013-07-18 10:53:00,88.0,75.0,30.14,ENE,65,1.0,-999.0,65,-99.99,,,-99.99,,2013-07-18 15:53:00,
2013-07-18 11:01:00,88.0,75.0,30.14,NE,45,0.0,-999.0,66,-99.99,,,-99.99,,2013-07-18 16:01:00,
2013-07-18 11:11:00,88.0,74.0,30.14,ENE,69,1.0,-999.0,64,-99.99,,,-99.99,,2013-07-18 16:11:00,
2013-07-18 11:22:00,89.0,75.0,30.14,NE,55,1.0,-999.0,64,-99.99,,,-99.99,,2013-07-18 16:22:00,
2013-07-18 11:32:00,89.0,76.0,30.14,ENE,69,1.0,-999.0,65,-99.99,,,-99.99,,2013-07-18 16:32:00,
2013-07-18 11:42:00,90.0,76.0,30.13,ENE,75,0.0,-999.0,64,-99.99,,,-99.99,,2013-07-18 16:42:00,
2013-07-18 11:52:00,90.0,74.0,30.13,ENE,75,2.0,-999.0,60,-99.99,,,-99.99,,2013-07-18 16:52:00,
2013-07-18 12:02:00,91.0,75.0,30.13,NE,34,1.0,-999.0,60,-99.99,,,-99.99,,2013-07-18 17:02:00,
2013-07-18 12:11:00,91.0,74.0,30.12,ENE,61,1.0,-999.0,58,-99.99,,,-99.99,,2013-07-18 17:11:00,
2013-07-18 12:22:00,91.0,74.0,30.12,ENE,68,1.0,-999.0,57,-99.99,,,-99.99,,2013-07-18 17:22:00,
2013-07-18 12:33:00,92.0,74.0,30.11,NE,55,1.0,-999.0,56,-99.99,,,-99.99,,2013-07-18 17:33:00,
2013-07-18 12:43:00,92.0,73.0,30.11,ESE,103,1.0,-999.0,54,-99.99,,,-99.99,,2013-07-18 17:43:00,
2013-07-18 12:52:00,92.0,73.0,30.10,ENE,76,2.0,-999.0,55,-99.99,,,-99.99,,2013-07-18 17:52:00,
2013-07-18 13:01:00,92.0,73.0,30.09,NE,36,1.0,-999.0,55,-99.99,,,-99.99,,2013-07-18 18:01:00,
2013-07-18 13:11:00,91.0,74.0,30.09,East,82,0.0,-999.0,57,-99.99,,,-99.99,,2013-07-18 18:11:00,
2013-07-18 13:22:00,91.0,73.0,30.08,ENE,68,0.0,-999.0,55,-99.99,,,-99.99,,2013-07-18 18:22:00,
2013-07-18 13:32:00,91.0,72.0,30.08,East,86,0.0,-999.0,54,-99.99,,,-99.99,,2013-07-18 18:32:00,
2013-07-18 13:43:00,91.0,74.0,30.08,SE,125,1.0,-999.0,58,-99.99,,,-99.99,,2013-07-18 18:43:00,
2013-07-18 13:52:00,92.0,73.0,30.07,East,81,0.0,-999.0,55,-99.99,,,-99.99,,2013-07-18 18:52:00,
2013-07-18 14:02:00,92.0,73.0,30.07,ENE,61,2.0,-999.0,54,-99.99,,,-99.99,,2013-07-18 19:02:00,
2013-07-18 14:11:00,90.0,72.0,30.08,NE,40,6.0,-999.0,56,-99.99,,,-99.99,,2013-07-18 19:11:00,
2013-07-18 15:11:00,88.0,69.0,30.05,NE,47,2.0,-999.0,53,-99.99,,,-99.99,,2013-07-18 20:11:00,
2013-07-18 15:22:00,88.0,69.0,30.05,NE,47,2.0,-999.0,53,-99.99,,,-99.99,,2013-07-18 20:22:00,
2013-07-18 15:32:00,88.0,69.0,30.05,NE,47,2.0,-999.0,53,-99.99,,,-99.99,,2013-07-18 20:32:00,
2013-07-18 15:43:00,88.0,69.0,30.05,NE,47,2.0,-999.0,53,-99.99,,,-99.99,,2013-07-18 20:43:00,
2013-07-18 15:52:00,88.0,69.0,30.05,NE,47,2.0,-999.0,53,-99.99,,,-99.99,,2013-07-18 20:52:00,
2013-07-18 16:01:00,84.0,70.0,30.03,NE,38,6.0,-999.0,64,-99.99,,,-99.99,,2013-07-18 21:01:00,
2013-07-18 16:11:00,84.0,70.0,30.03,ENE,71,6.0,-999.0,62,-99.99,,,-99.99,,2013-07-18 21:11:00,
2013-07-18 16:22:00,84.0,70.0,30.04,East,86,5.0,-999.0,63,-99.99,,,-99.99,,2013-07-18 21:22:00,
2013-07-18 16:32:00,84.0,70.0,30.04,ENE,75,6.0,-999.0,64,-99.99,,,-99.99,,2013-07-18 21:32:00,
2013-07-18 16:43:00,84.0,70.0,30.04,ENE,74,2.0,-999.0,64,-99.99,,,-99.99,,2013-07-18 21:43:00,
2013-07-18 16:52:00,84.0,69.0,30.04,ENE,69,2.0,-999.0,60,-99.99,,,-99.99,,2013-07-18 21:52:00,
2013-07-18 17:01:00,84.0,69.0,30.04,NNE,32,5.0,-999.0,60,-99.99,,,-99.99,,2013-07-18 22:01:00,
2013-07-18 17:11:00,84.0,69.0,30.04,NE,44,3.0,-999.0,60,-99.99,,,-99.99,,2013-07-18 22:11:00,
2013-07-18 17:22:00,84.0,69.0,30.05,East,89,2.0,-999.0,61,-99.99,,,-99.99,,2013-07-18 22:22:00,
2013-07-18 17:32:00,84.0,70.0,30.04,ENE,65,1.0,-999.0,62,-99.99,,,-99.99,,2013-07-18 22:32:00,
2013-07-18 17:43:00,84.0,70.0,30.05,East,99,0.0,-999.0,62,-99.99,,,-99.99,,2013-07-18 22:43:00,
2013-07-18 17:53:00,84.0,70.0,30.05,ENE,63,1.0,-999.0,63,-99.99,,,-99.99,,2013-07-18 22:53:00,
2013-07-18 18:02:00,84.0,70.0,30.06,East,88,1.0,-999.0,64,-99.99,,,-99.99,,2013-07-18 23:02:00,
2013-07-18 18:11:00,83.0,70.0,30.06,ESE,118,0.0,-999.0,65,-99.99,,,-99.99,,2013-07-18 23:11:00,
2013-07-18 18:22:00,83.0,71.0,30.05,ESE,118,0.0,-999.0,68,-99.99,,,-99.99,,2013-07-18 23:22:00,
2013-07-18 18:32:00,82.0,71.0,30.05,SE,129,0.0,-999.0,70,-99.99,,,-99.99,,2013-07-18 23:32:00,
2013-07-18 18:42:00,82.0,72.0,30.05,SSE,163,0.0,-999.0,72,-99.99,,,-99.99,,2013-07-18 23:42:00,
2013-07-18 18:52:00,81.0,71.0,30.05,South,184,0.0,-999.0,72,-99.99,,,-99.99,,2013-07-18 23:52:00,
2013-07-18 19:01:00,81.0,72.0,30.05,SSE,166,0.0,-999.0,74,-99.99,,,-99.99,,2013-07-19 00:01:00,
2013-07-18 19:11:00,80.0,71.0,30.06,SSE,150,0.0,-999.0,74,-99.99,,,-99.99,,2013-07-19 00:11:00,
2013-07-18 19:22:00,80.0,71.0,30.06,South,173,1.0,-999.0,73,-99.99,,,-99.99,,2013-07-19 00:22:00,
2013-07-18 19:32:00,79.0,69.0,30.06,SW,219,2.0,-999.0,72,-99.99,,,-99.99,,2013-07-19 00:32:00,
2013-07-18 19:43:00,79.0,70.0,30.05,SSW,209,2.0,-999.0,73,-99.99,,,-99.99,,2013-07-19 00:43:00,
2013-07-18 19:52:00,78.0,69.0,30.05,SW,233,2.0,-999.0,73,-99.99,,,-99.99,,2013-07-19 00:52:00,
2013-07-18 20:01:00,78.0,69.0,30.04,WSW,240,1.0,-999.0,74,-99.99,,,-99.99,,2013-07-19 01:01:00,
2013-07-18 20:11:00,78.0,69.0,30.05,North,-999,-999.0,-999.0,74,-99.99,,,-99.99,,2013-07-19 01:11:00,